sat.trackr.live / text

‹ back to catalog

STARLINK-35153

NORAD 65625 · 2025-210D

PAYLOAD ACTIVE UNKNOWN

§ Identity

Operator
Country
US
Launch date
2025-09-18
Launch site
AFETR
Launch vehicle
Mass (kg)
RCS (m²)

Purposes: comms

External: N2YO · Heavens-Above · Gunter

§ Orbital elements

Epoch: 2026-09-20T21:14:40.975872Z

Period
93.85 min
Inclination
53.1563°
Eccentricity
0.0002145
Mean motion
15.34405949 rev/d
Perigee alt
461.2 km
Apogee alt
464.2 km
Semi-major
6,840.8 km
B*
3.6708e-4
RAAN
115.6465°
Arg perigee
89.3337°
Mean anomaly
270.7911°
Rev number
5,760

§ Raw data

STARLINK-351531 65625U 25210D   26263.88519648  .00012048  00000+0  36708-3 0  99932 65625  53.1563 115.6465 0002145  89.3337 270.7911 15.34405949 57601

JSON: /api/v1/satellites/65625 · /tle

For live sub-satellite position, see the globe view (requires WebGL).

§ Visibility from observer

Set your observer location to see the next 7 days of passes ≥ 10°. The values pass through the URL so the page stays shareable.

No JS? Fill the form by hand. The geolocation button needs JavaScript.